EW3013 Weather Reports


time (UTC)temp
F
wind
direction
speed
knots
gust
knots
rain 1hr
in
rain 24hr
in
rain mn
in
humidity
%
barometer
mb
20260506202121 66 241 0.9 2.6 0.00 0.00 0.23 81 1005.7
20260506201121 65 205 1.7 4.3 0.00 0.00 0.23 81 1005.6
20260506200121 65 237 3.5 7.0 0.00 0.00 0.23 82 1005.8
20260506195121 65 236 2.6 6.1 0.00 0.00 0.23 82 1005.9
20260506194121 65 250 1.7 3.5 0.00 0.00 0.23 82 1006.0
20260506193121 64 182 1.7 6.1 0.00 0.00 0.23 83 1006.0
20260506192121 64 226 2.6 5.2 0.00 0.00 0.23 84 1006.1
20260506191142 64 225 2.6 4.3 0.00 0.00 0.23 84 1006.2
20260506190142 63 235 2.6 7.0 0.00 0.00 0.23 85 1006.4
20260506185121 63 245 2.6 7.0 0.00 0.00 0.23 86 1006.4
20260506184142 62 229 3.5 8.7 0.00 0.00 0.23 86 1006.4
20260506183121 62 230 1.7 4.3 0.00 0.00 0.23 87 1006.4
20260506182121 62 242 2.6 4.3 0.00 0.00 0.23 87 1006.6
20260506181121 62 271 2.6 6.1 0.00 0.00 0.23 87 1006.8
20260506180121 62 248 3.5 7.8 0.00 0.00 0.23 87 1006.7
20260506175142 61 231 3.5 9.6 0.00 0.00 0.23 87 1006.8
20260506174121 61 228 3.5 9.6 0.00 0.00 0.23 88 1006.7
20260506173121 61 255 2.6 7.8 0.00 0.00 0.23 87 1006.8
20260506172121 61 240 2.6 7.8 0.00 0.00 0.23 87 1006.8
20260506171121 61 212 3.5 14.8 0.00 0.00 0.23 87 1006.7
20260506170121 61 224 2.6 4.3 0.00 0.00 0.23 88 1007.0
20260506165142 61 230 2.6 6.1 0.00 0.00 0.23 89 1007.1
20260506164121 61 219 2.6 7.0 0.00 0.00 0.23 90 1007.1
20260506163142 61 218 1.7 4.3 0.00 0.00 0.23 90 1006.9
20260506162121 61 220 2.6 6.1 0.00 0.00 0.23 89 1007.1
20260506161121 61 324 0.9 7.8 0.00 0.00 0.22 90 1007.0
20260506160121 61 174 2.6 9.6 0.00 0.00 0.22 90 1007.0
20260506155121 60 236 2.6 7.0 0.00 0.00 0.21 90 1007.8
20260506154121 60 235 0.9 2.6 0.00 0.00 0.18 90 1007.9
20260506153121 60 245 1.7 4.3 0.00 0.00 0.17 90 1008.1
20260506152121 60 256 1.7 3.5 0.00 0.00 0.15 89 1008.3
20260506151121 60 231 0.9 4.3 0.00 0.00 0.15 89 1008.1
20260506150121 60 201 1.7 5.2 0.00 0.00 0.14 88 1008.0
20260506145121 61 213 1.7 7.0 0.00 0.00 0.11 87 1007.9
20260506144121 61 230 1.7 6.1 0.00 0.00 0.10 87 1008.0
20260506143121 61 228 1.7 3.5 0.00 0.00 0.08 87 1008.1
20260506142121 61 227 1.7 5.2 0.00 0.00 0.07 86 1007.9
20260506141121 62 249 0.9 2.6 0.00 0.00 0.05 85 1008.1
20260506140121 62 216 1.7 4.3 0.00 0.00 0.04 82 1008.0
20260506135121 63 241 2.6 11.3 0.00 0.00 0.02 79 1008.0
20260506134142 63 252 1.7 7.0 0.00 0.00 0.02 78 1007.9
20260506133121 64 246 2.6 8.7 0.00 0.00 0.01 77 1007.9
20260506132123 64 192 2.6 7.0 0.00 0.00 0.01 77 1007.9
20260506131121 64 211 2.6 7.8 0.00 0.00 0.01 76 1007.9
20260506130121 64 243 3.5 8.7 0.00 0.00 0.01 76 1008.0
20260506125122 64 232 3.5 10.4 0.00 0.00 0.01 75 1008.1
20260506124122 64 245 4.3 10.4 0.00 0.00 0.00 73 1008.1
20260506123121 65 251 4.3 13.9 0.00 0.00 0.00 72 1008.1
20260506122122 65 224 4.3 13.9 0.00 0.00 0.00 72 1007.9
20260506121122 65 256 3.5 9.6 0.00 0.00 0.00 72 1008.1
20260506120122 65 237 3.5 7.8 0.00 0.00 0.00 72 1007.8
20260506115122 65 260 1.7 5.2 0.00 0.00 0.00 72 1007.6
20260506114121 65 218 3.5 9.6 0.00 0.00 0.00 72 1007.6
20260506113143 65 206 3.5 9.6 0.00 0.00 0.00 72 1007.5
20260506112122 65 209 2.6 5.2 0.00 0.00 0.00 72 1007.6
20260506111122 65 219 2.6 7.8 0.00 0.00 0.00 72 1007.5
20260506110143 64 185 3.5 10.4 0.00 0.00 0.00 72 1007.5
20260506105122 64 297 2.6 4.3 0.00 0.00 0.00 72 1007.5
20260506104122 64 201 3.5 9.6 0.00 0.00 0.00 72 1007.4
20260506103122 64 231 2.6 6.1 0.00 0.00 0.00 72 1007.4
20260506102122 64 188 3.5 9.6 0.00 0.00 0.00 72 1007.4
20260506101122 65 329 2.6 4.3 0.00 0.00 0.00 71 1007.5
20260506100143 65 218 3.5 8.7 0.00 0.00 0.00 71 1007.3
20260506095122 65 197 3.5 7.8 0.00 0.00 0.00 70 1007.4
20260506094122 65 265 2.6 7.0 0.00 0.00 0.00 70 1007.4
20260506093143 66 215 2.6 6.1 0.00 0.00 0.00 69 1007.5
20260506092122 66 227 1.7 5.2 0.00 0.00 0.00 69 1007.5
20260506091122 66 230 2.6 8.7 0.00 0.00 0.00 69 1007.5
20260506090122 66 233 2.6 7.8 0.00 0.00 0.00 69 1007.5
20260506085122 66 14 1.7 5.2 0.00 0.00 0.00 69 1007.5
20260506084122 66 246 1.7 6.1 0.00 0.00 0.00 69 1007.6
20260506083122 66 160 2.6 7.0 0.00 0.00 0.00 69 1007.5
20260506082120 66 234 1.7 4.3 0.00 0.00 0.00 68 1007.6
20260506081120 66 242 1.7 5.2 0.00 0.00 0.00 68 1007.6
20260506080120 67 260 1.7 4.3 0.00 0.00 0.00 67 1007.7
20260506073121 67 192 1.7 6.1 0.00 0.00 0.00 66 1007.8
20260506072121 66 152 0.9 4.3 0.00 0.00 0.00 66 1007.9
20260506071120 67 211 2.6 6.1 0.00 0.00 0.00 65 1008.0
20260506070121 67 232 2.6 6.1 0.00 0.00 0.00 64 1008.0
20260506062121 67 229 0.9 3.5 0.00 0.00 0.00 61 1008.5
20260506061142 67 176 0.9 3.5 0.00 0.00 0.00 61 1008.5
20260506060121 67 230 0.9 2.6 0.00 0.00 0.00 60 1008.4
20260506051121 68 318 1.7 3.5 0.00 0.00 0.00 57 1008.8
20260506050121 68 270 1.7 3.5 0.00 0.00 0.00 56 1008.8
20260506045121 68 308 0.9 2.6 0.00 0.00 0.00 56 1008.8
20260506044142 68 331 0.9 2.6 0.00 0.00 0.00 56 1008.8
20260506043121 68 287 1.7 5.2 0.00 0.00 0.00 55 1008.9
20260506042142 68 274 1.7 4.3 0.00 0.00 0.00 55 1008.7
20260506041121 68 306 1.7 4.3 0.00 0.00 0.00 55 1008.8
20260506040121 67 277 1.7 3.5 0.00 0.00 0.00 56 1008.9
20260506035121 68 292 0.9 3.5 0.00 0.00 0.00 55 1008.8
20260506034121 68 315 0.9 2.6 0.00 0.00 0.00 55 1008.7
20260506033121 68 308 0.9 4.3 0.00 0.00 0.00 55 1008.7
20260506032121 68 336 0.9 3.5 0.00 0.00 0.00 54 1008.6
20260506031121 68 342 1.7 3.5 0.00 0.00 0.00 55 1008.6
20260506030121 69 281 1.7 5.2 0.00 0.00 0.00 53 1008.7
20260506025121 69 360 1.7 2.6 0.00 0.00 0.00 53 1008.6
20260506024121 69 339 0.9 2.6 0.00 0.00 0.00 52 1008.7
20260506023142 69 342 1.7 2.6 0.00 0.00 0.00 52 1008.7
20260506022121 70 317 0.9 2.6 0.00 0.00 0.00 51 1008.8
20260506021142 70 5 0.9 2.6 0.00 0.00 0.00 50 1008.7
20260506020121 71 292 1.7 3.5 0.00 0.00 0.00 49 1008.7
20260506015121 71 239 1.7 5.2 0.00 0.00 0.00 49 1008.5
20260506014142 71 24 0.9 3.5 0.00 0.00 0.00 48 1008.5
20260506013121 71 208 1.7 5.2 0.00 0.00 0.00 47 1008.5
20260506012121 72 325 1.7 3.5 0.00 0.00 0.00 46 1008.3
20260506011121 72 301 1.7 5.2 0.00 0.00 0.00 46 1008.2
20260506010142 73 306 1.7 5.2 0.00 0.00 0.00 45 1008.0
20260506005121 73 230 1.7 7.0 0.00 0.00 0.00 43 1008.0
20260506004121 74 261 2.6 6.1 0.00 0.00 0.00 43 1008.0
20260506003121 74 338 0.9 2.6 0.00 0.00 0.00 41 1007.8
20260506002121 74 335 0.9 3.5 0.00 0.00 0.00 41 1007.8
20260506001121 74 317 0.9 2.6 0.00 0.00 0.00 40 1007.7
20260506000142 74 293 1.7 4.3 0.00 0.00 0.00 40 1007.7
20260505235121 75 289 1.7 7.0 0.00 0.00 0.00 40 1007.6
20260505234142 75 266 2.6 5.2 0.00 0.00 0.00 39 1007.4
20260505233121 76 315 1.7 4.3 0.00 0.00 0.00 39 1007.3
20260505232121 76 278 2.6 7.8 0.00 0.00 0.00 38 1007.4
20260505231142 77 273 3.5 7.8 0.00 0.00 0.00 37 1007.5
20260505230121 77 266 3.5 7.0 0.00 0.00 0.00 37 1007.4
20260505225121 78 238 2.6 7.8 0.00 0.00 0.00 36 1007.3
20260505224121 78 175 3.5 8.7 0.00 0.00 0.00 37 1007.4
20260505223121 78 280 3.5 7.8 0.00 0.00 0.00 36 1007.4
20260505222142 79 252 3.5 7.0 0.00 0.00 0.00 36 1007.3
20260505221121 79 249 3.5 11.3 0.00 0.00 0.00 36 1007.4
20260505220122 79 249 3.5 8.7 0.00 0.00 0.00 36 1007.3
20260505215121 80 263 2.6 8.7 0.00 0.00 0.00 35 1007.3
20260505214121 80 253 2.6 7.0 0.00 0.00 0.00 35 1007.3
20260505213121 80 263 3.5 10.4 0.00 0.00 0.00 35 1007.2
20260505212121 80 252 3.5 7.0 0.00 0.00 0.00 34 1007.1
20260505211121 80 268 4.3 9.6 0.00 0.00 0.00 34 1007.2
20260505210121 80 247 3.5 8.7 0.00 0.00 0.00 34 1007.3
20260505205142 80 264 3.5 13.0 0.00 0.00 0.00 35 1007.2
20260505204121 80 264 3.5 11.3 0.00 0.00 0.00 34 1007.2
20260505203121 80 253 4.3 13.9 0.00 0.00 0.00 35 1007.2